FW6610 Weather Reports


time (UTC)temp
C
wind
direction
speed
KPH
gust
KPH
rain 1hr
cm
rain 24hr
cm
rain mn
cm
humidity
%
barometer
mb
20260504195029 22 234 3.2 14.5 0.00 0.00 0.00 34 1007.7
20260504194545 22 147 4.8 17.7 0.00 0.00 0.00 35 1007.6
20260504194030 22 222 6.4 17.7 0.00 0.00 0.00 34 1007.6
20260504193530 22 210 3.2 12.9 0.00 0.00 0.00 35 1007.6
20260504193044 22 133 3.2 12.9 0.00 0.00 0.00 36 1007.6
20260504192529 22 20 3.2 20.9 0.00 0.00 0.00 38 1007.7
20260504192029 22 140 4.8 20.9 0.00 0.00 0.00 34 1007.5
20260504191542 22 205 11.3 20.9 0.00 0.00 0.00 36 1007.6
20260504191031 22 156 6.4 12.9 0.00 0.00 0.00 38 1007.8
20260504190530 22 205 3.2 8.0 0.00 0.00 0.00 37 1007.7
20260504190038 21 92 3.2 11.3 0.00 0.00 0.00 38 1007.9
20260504185529 21 219 4.8 12.9 0.00 0.00 0.00 38 1007.8
20260504185032 22 187 4.8 12.9 0.00 0.00 0.00 34 1008.0
20260504184537 21 299 1.6 20.9 0.00 0.00 0.00 38 1007.9
20260504184029 21 332 6.4 20.9 0.00 0.00 0.00 37 1008.1
20260504183530 21 221 6.4 20.9 0.00 0.00 0.00 38 1008.0
20260504183045 21 354 4.8 17.7 0.00 0.00 0.00 38 1008.1
20260504182529 22 145 4.8 24.1 0.00 0.00 0.00 34 1008.2
20260504182029 21 295 4.8 24.1 0.00 0.00 0.00 36 1008.1
20260504181540 22 342 3.2 20.9 0.00 0.00 0.00 38 1008.2
20260504181029 21 227 4.8 16.1 0.00 0.00 0.00 37 1008.3
20260504180530 21 357 4.8 27.4 0.00 0.00 0.00 39 1008.5
20260504180043 21 223 4.8 27.4 0.00 0.00 0.00 36 1008.4
20260504175531 21 312 6.4 19.3 0.00 0.00 0.00 35 1008.4
20260504175030 21 227 6.4 19.3 0.00 0.00 0.00 35 1008.3
20260504174538 21 20 4.8 19.3 0.00 0.00 0.00 40 1008.5
20260504174026 21 125 4.8 17.7 0.00 0.00 0.00 40 1008.5
20260504173529 21 330 6.4 16.1 0.00 0.00 0.00 34 1008.6
20260504173058 21 300 8.0 14.5 0.00 0.00 0.00 37 1008.6
20260504172529 21 292 1.6 12.9 0.00 0.00 0.00 38 1008.5
20260504172029 21 360 1.6 27.4 0.00 0.00 0.00 37 1008.7
20260504171542 20 90 6.4 27.4 0.00 0.00 0.00 35 1008.6
20260504171031 21 281 4.8 27.4 0.00 0.00 0.00 38 1008.7
20260504170526 20 179 6.4 17.7 0.00 0.00 0.00 38 1008.7
20260504151026 17 171 4.8 22.5 0.00 0.00 0.00 38 1009.9
20260504150526 17 289 8.0 22.5 0.00 0.00 0.00 40 1010.0
20260504141029 16 203 3.2 9.7 0.00 0.00 0.00 43 1010.8
20260504140529 16 220 1.6 17.7 0.00 0.00 0.00 42 1010.8
20260504130530 15 107 1.6 11.3 0.00 0.00 0.00 52 1010.7
20260504110529 2 0 0.0 0.0 0.00 0.00 0.00 88 1011.6
20260504100529 1 0 0.0 0.0 0.00 0.00 0.00 87 1011.4
20260504090116 3 0 0.0 0.0 0.00 0.00 0.00 78 1011.1
20260504081556 4 176 0.0 0.0 0.00 0.00 0.00 70 1011.2
20260504081029 5 175 0.0 0.0 0.00 0.00 0.00 69 1011.3
20260504080746 5 0 0.0 0.0 0.00 0.00 0.00 68 1011.2
20260504070124 6 0 0.0 3.2 0.00 0.00 0.00 63 1011.2
20260504050530 5 0 0.0 0.0 0.00 0.00 0.00 71 1011.5
20260504045529 5 0 0.0 0.0 0.00 0.00 0.00 72 1011.5
20260504045029 5 0 0.0 0.0 0.00 0.00 0.00 73 1011.5
20260504044542 5 0 0.0 0.0 0.00 0.00 0.00 73 1011.5
20260504044028 5 0 0.0 0.0 0.00 0.00 0.00 74 1011.5
20260504043529 5 0 0.0 0.0 0.00 0.00 0.00 73 1011.5
20260504043043 5 0 0.0 0.0 0.00 0.00 0.00 72 1011.6
20260504042529 5 0 0.0 0.0 0.00 0.00 0.00 72 1011.5
20260504042030 5 0 0.0 0.0 0.00 0.00 0.00 73 1011.4
20260504041543 5 0 0.0 0.0 0.00 0.00 0.00 74 1011.4
20260504041029 5 0 0.0 0.0 0.00 0.00 0.00 73 1011.4
20260504040530 5 0 0.0 0.0 0.00 0.00 0.00 70 1011.3
20260504040042 5 0 0.0 0.0 0.00 0.00 0.00 69 1011.3
20260504035531 5 0 0.0 0.0 0.00 0.00 0.00 68 1011.3
20260504035029 5 0 0.0 0.0 0.00 0.00 0.00 68 1011.4
20260504034544 5 0 0.0 0.0 0.00 0.00 0.00 68 1011.4
20260504034028 5 0 0.0 0.0 0.00 0.00 0.00 68 1011.3
20260504033528 5 0 0.0 1.6 0.00 0.00 0.00 69 1011.2
20260504033037 5 0 0.0 1.6 0.00 0.00 0.00 70 1011.2
20260504032528 5 0 0.0 1.6 0.00 0.00 0.00 68 1011.2
20260504032030 5 210 0.0 1.6 0.00 0.00 0.00 68 1011.1
20260504031543 5 208 0.0 1.6 0.00 0.00 0.00 69 1011.1
20260504031030 5 208 0.0 1.6 0.00 0.00 0.00 68 1011.2
20260504030530 4 208 0.0 1.6 0.00 0.00 0.00 67 1011.2
20260504030041 5 216 0.0 1.6 0.00 0.00 0.00 68 1011.2
20260504025529 4 214 0.0 1.6 0.00 0.00 0.00 66 1011.2
20260504025029 4 207 0.0 1.6 0.00 0.00 0.00 66 1011.0
20260504024546 5 219 0.0 1.6 0.00 0.00 0.00 65 1011.2
20260504024030 5 219 0.0 1.6 0.00 0.00 0.00 65 1011.3
20260504023531 5 214 0.0 3.2 0.00 0.00 0.00 66 1011.2
20260504023046 5 214 1.6 3.2 0.00 0.00 0.00 62 1011.2
20260504022529 5 214 0.0 3.2 0.00 0.00 0.00 64 1011.3
20260504022030 5 204 0.0 3.2 0.00 0.00 0.00 63 1011.3
20260504021541 5 0 0.0 3.2 0.00 0.00 0.00 62 1011.1
20260504021028 5 213 1.6 1.6 0.00 0.00 0.00 60 1011.1
20260504020528 5 210 1.6 1.6 0.00 0.00 0.00 59 1011.1
20260504020043 5 208 0.0 1.6 0.00 0.00 0.00 59 1011.1
20260504015529 5 205 0.0 1.6 0.00 0.00 0.00 59 1010.9
20260504015030 6 204 0.0 3.2 0.00 0.00 0.00 58 1010.8
20260504014541 6 0 1.6 8.0 0.00 0.00 0.00 56 1010.8
20260504014030 6 255 1.6 8.0 0.00 0.00 0.00 56 1010.7
20260504013529 6 0 0.0 1.6 0.00 0.00 0.00 57 1010.6
20260504013055 6 212 0.0 1.6 0.00 0.00 0.00 56 1010.5
20260504012529 6 0 0.0 3.2 0.00 0.00 0.00 61 1010.5
20260504012029 6 221 0.0 3.2 0.00 0.00 0.00 58 1010.5
20260504011536 6 205 0.0 3.2 0.00 0.00 0.00 57 1010.4
20260504011028 6 205 0.0 3.2 0.00 0.00 0.00 55 1010.3
20260504010528 6 221 0.0 1.6 0.00 0.00 0.00 54 1010.2
20260504010044 6 0 0.0 1.6 0.00 0.00 0.00 52 1010.2
20260504005529 6 202 0.0 1.6 0.00 0.00 0.00 53 1010.1
20260504005029 7 202 0.0 1.6 0.00 0.00 0.00 51 1010.1
20260504004545 7 202 0.0 1.6 0.00 0.00 0.00 51 1010.0
20260504004029 7 201 0.0 1.6 0.00 0.00 0.00 48 1009.9
20260504003530 7 199 0.0 1.6 0.00 0.00 0.00 49 1009.8
20260504003041 8 207 0.0 1.6 0.00 0.00 0.00 50 1009.7
20260504002529 8 0 0.0 1.6 0.00 0.00 0.00 45 1009.6
20260504002029 8 207 0.0 1.6 0.00 0.00 0.00 46 1009.5
20260504001547 9 236 0.0 1.6 0.00 0.00 0.00 40 1009.5
20260504001029 10 0 0.0 6.4 0.00 0.00 0.00 37 1009.5
20260504000530 10 0 0.0 6.4 0.00 0.00 0.00 37 1009.4
20260504000043 10 310 0.0 6.4 0.00 0.00 0.00 35 1009.4
20260503235529 10 314 1.6 6.4 0.00 0.00 0.00 36 1009.4
20260503235029 11 359 1.6 14.5 0.00 0.00 0.00 35 1009.4
20260503234537 11 334 3.2 14.5 0.00 0.00 0.00 35 1009.2
20260503234029 11 0 1.6 9.7 0.00 0.00 0.00 36 1009.4
20260503233528 11 278 3.2 12.9 0.00 0.00 0.00 34 1009.2
20260503233045 11 301 6.4 12.9 0.00 0.00 0.00 34 1009.1
20260503232528 11 328 1.6 8.0 0.00 0.00 0.00 35 1009.3
20260503232029 11 323 3.2 14.5 0.00 0.00 0.00 35 1009.2
20260503231537 11 319 1.6 14.5 0.00 0.00 0.00 36 1009.2
20260503231032 11 349 4.8 14.5 0.00 0.00 0.00 35 1009.0
20260503230530 11 340 6.4 14.5 0.00 0.00 0.00 39 1009.2
20260503230045 11 104 3.2 9.7 0.00 0.00 0.00 38 1009.1
20260503225529 11 252 3.2 19.3 0.00 0.00 0.00 36 1009.0
20260503225031 12 274 4.8 19.3 0.00 0.00 0.00 36 1009.1
20260503224541 12 335 4.8 14.5 0.00 0.00 0.00 35 1009.1
20260503224028 12 287 4.8 12.9 0.00 0.00 0.00 37 1009.0
20260503223529 12 328 3.2 14.5 0.00 0.00 0.00 38 1009.0
20260503223042 12 333 4.8 14.5 0.00 0.00 0.00 39 1009.2
20260503222528 12 349 3.2 11.3 0.00 0.00 0.00 38 1009.2
20260503222030 12 322 3.2 14.5 0.00 0.00 0.00 37 1009.1
20260503221536 12 61 3.2 17.7 0.00 0.00 0.00 38 1009.1
20260503221029 12 307 6.4 17.7 0.00 0.00 0.00 38 1009.1
20260503220529 12 328 6.4 29.0 0.00 0.00 0.00 37 1009.1
20260503220035 12 281 6.4 29.0 0.00 0.00 0.00 39 1009.1
20260503215529 12 352 6.4 22.5 0.00 0.00 0.00 38 1009.1
20260503215029 12 320 4.8 24.1 0.00 0.00 0.00 41 1009.0
20260503214545 12 350 9.7 24.1 0.00 0.00 0.00 39 1009.1
20260503214029 12 274 8.0 20.9 0.00 0.00 0.00 40 1009.3
20260503213528 11 18 8.0 22.5 0.00 0.00 0.00 39 1009.0
20260503213045 11 164 6.4 22.5 0.00 0.00 0.00 42 1009.2
20260503212528 11 11 9.7 24.1 0.00 0.00 0.00 41 1009.0
20260503212029 11 285 11.3 24.1 0.00 0.00 0.00 41 1009.2
20260503211540 12 286 9.7 24.1 0.00 0.00 0.00 41 1009.1
20260503211028 12 304 8.0 17.7 0.00 0.00 0.00 42 1009.1
20260503210528 12 304 4.8 19.3 0.00 0.00 0.00 40 1009.1
20260503210040 11 359 8.0 24.1 0.00 0.00 0.00 41 1009.1
20260503205529 11 332 12.9 24.1 0.00 0.00 0.00 43 1009.1
20260503205029 11 334 8.0 20.9 0.00 0.00 0.00 40 1008.9
20260503204544 11 303 6.4 25.7 0.00 0.00 0.00 41 1008.9
20260503204028 11 356 4.8 25.7 0.00 0.00 0.00 41 1009.0
20260503203533 11 319 11.3 19.3 0.00 0.00 0.00 40 1008.9
20260503203047 11 322 9.7 17.7 0.00 0.00 0.00 45 1008.8
20260503202529 11 317 8.0 24.1 0.00 0.00 0.00 43 1008.9
20260503202029 11 282 8.0 24.1 0.00 0.00 0.00 41 1008.8
20260503201546 11 309 9.7 24.1 0.00 0.00 0.00 42 1009.0
20260503201028 11 258 9.7 24.1 0.00 0.00 0.00 43 1009.0
20260503200528 11 1 8.0 19.3 0.00 0.00 0.00 42 1008.8
20260503200044 11 323 8.0 16.1 0.00 0.00 0.00 43 1009.0
20260503195528 11 28 6.4 27.4 0.00 0.00 0.00 43 1008.9